Meteo pe oră la Dąbrowa Białostocka

Astăzi, 17 Aprilie, Sâmbătă

Timp Temperatura Precipitaţii Vânt Presiune Umiditate
00:00 +6°C° 0 mm 4 m/s 748 mmHg 95%
01:00 +5°C° 0 mm 3 m/s 748 mmHg 96%
02:00 +4°C° 0 mm 3 m/s 748 mmHg 97%
03:00 +4°C° 0 mm 3 m/s 748 mmHg 98%
04:00 +4°C° 0 mm 3 m/s 748 mmHg 98%
05:00 +5°C° 0 mm 2 m/s 748 mmHg 98%
06:00 +4°C° 0 mm 3 m/s 749 mmHg 96%
07:00 +5°C° 0 mm 3 m/s 749 mmHg 94%
08:00 +7°C° 0 mm 3 m/s 749 mmHg 92%
09:00 +8°C° 0 mm 3 m/s 749 mmHg 89%
10:00 +9°C° 0 mm 3 m/s 750 mmHg 85%
11:00 +10°C° 0 mm 3 m/s 750 mmHg 81%
12:00 +11°C° 0.2 mm 3 m/s 750 mmHg 78%
13:00 +11°C° 0.2 mm 3 m/s 750 mmHg 74%
14:00 +12°C° 0.2 mm 3 m/s 750 mmHg 70%
15:00 +12°C° 0.2 mm 3 m/s 750 mmHg 68%
16:00 +13°C° 0.2 mm 3 m/s 750 mmHg 67%
17:00 +13°C° 0.2 mm 3 m/s 750 mmHg 65%
18:00 +11°C° 0.1 mm 3 m/s 750 mmHg 72%
19:00 +10°C° 0.1 mm 3 m/s 750 mmHg 80%
20:00 +9°C° 0.1 mm 3 m/s 750 mmHg 87%
21:00 +8°C° 0 mm 3 m/s 750 mmHg 88%
22:00 +8°C° 0 mm 2 m/s 750 mmHg 90%
23:00 +7°C° 0 mm 2 m/s 751 mmHg 91%

Mâine, 18 Aprilie, Duminică

Timp Temperatura Precipitaţii Vânt Presiune Umiditate
00:00 +7°C° 0 mm 2 m/s 751 mmHg 92%
01:00 +7°C° 0 mm 2 m/s 751 mmHg 93%
02:00 +7°C° 0 mm 2 m/s 751 mmHg 93%
03:00 +7°C° 0 mm 2 m/s 751 mmHg 93%
04:00 +7°C° 0 mm 2 m/s 750 mmHg 93%
05:00 +7°C° 0 mm 2 m/s 750 mmHg 93%
06:00 +8°C° 0 mm 3 m/s 750 mmHg 91%
07:00 +9°C° 0 mm 3 m/s 750 mmHg 89%
08:00 +8°C° 0 mm 4 m/s 750 mmHg 87%
09:00 +11°C° 0 mm 4 m/s 750 mmHg 81%
10:00 +12°C° 0 mm 4 m/s 750 mmHg 74%
11:00 +13°C° 0 mm 5 m/s 750 mmHg 68%
12:00 +13°C° 0 mm 4 m/s 750 mmHg 69%
13:00 +13°C° 0 mm 4 m/s 751 mmHg 71%
14:00 +12°C° 0 mm 4 m/s 751 mmHg 72%
15:00 +12°C° 0 mm 4 m/s 751 mmHg 71%
16:00 +12°C° 0 mm 4 m/s 751 mmHg 70%
17:00 +12°C° 0 mm 3 m/s 751 mmHg 69%
18:00 +11°C° 0 mm 3 m/s 751 mmHg 73%
19:00 +11°C° 0 mm 3 m/s 751 mmHg 77%
20:00 +10°C° 0 mm 3 m/s 751 mmHg 81%
21:00 +9°C° 0 mm 3 m/s 751 mmHg 82%
22:00 +9°C° 0 mm 3 m/s 751 mmHg 84%
23:00 +8°C° 0 mm 2 m/s 752 mmHg 85%

Poimâine, 19 Aprilie, Luni

Timp Temperatura Precipitaţii Vânt Presiune Umiditate
00:00 +8°C° 0 mm 2 m/s 751 mmHg 87%
01:00 +7°C° 0 mm 2 m/s 751 mmHg 88%
02:00 +7°C° 0 mm 2 m/s 751 mmHg 89%
03:00 +6°C° 0 mm 2 m/s 751 mmHg 90%
04:00 +5°C° 0 mm 3 m/s 751 mmHg 91%
05:00 +4°C° 0 mm 3 m/s 751 mmHg 93%
06:00 +5°C° 0 mm 3 m/s 751 mmHg 88%
07:00 +6°C° 0 mm 4 m/s 751 mmHg 84%
08:00 +6°C° 0 mm 4 m/s 751 mmHg 79%
09:00 +7°C° 0 mm 4 m/s 751 mmHg 77%
10:00 +7°C° 0 mm 4 m/s 751 mmHg 74%
11:00 +8°C° 0 mm 4 m/s 751 mmHg 71%
12:00 +8°C° 0 mm 4 m/s 751 mmHg 71%
13:00 +8°C° 0 mm 4 m/s 751 mmHg 70%
14:00 +8°C° 0 mm 4 m/s 751 mmHg 69%
15:00 +8°C° 0 mm 4 m/s 751 mmHg 69%
16:00 +8°C° 0 mm 4 m/s 750 mmHg 69%
17:00 +8°C° 0 mm 4 m/s 750 mmHg 69%
18:00 +7°C° 0 mm 4 m/s 750 mmHg 72%
19:00 +8°C° 0 mm 3 m/s 750 mmHg 76%
20:00 +7°C° 0 mm 3 m/s 750 mmHg 79%
21:00 +7°C° 0.1 mm 3 m/s 749 mmHg 82%
22:00 +7°C° 0.1 mm 3 m/s 749 mmHg 85%
23:00 +7°C° 0.1 mm 3 m/s 749 mmHg 87%

20 Aprilie, Marţi

Timp Temperatura Precipitaţii Vânt Presiune Umiditate
00:00 +6°C° 0.1 mm 2 m/s 749 mmHg 89%
01:00 +6°C° 0.1 mm 2 m/s 748 mmHg 91%
02:00 +6°C° 0.1 mm 2 m/s 748 mmHg 93%
03:00 +6°C° 0 mm 2 m/s 747 mmHg 93%
04:00 +5°C° 0 mm 2 m/s 747 mmHg 94%
05:00 +5°C° 0 mm 2 m/s 747 mmHg 94%
06:00 +4°C° 0 mm 3 m/s 747 mmHg 91%
07:00 +5°C° 0 mm 3 m/s 746 mmHg 88%
08:00 +5°C° 0 mm 3 m/s 746 mmHg 85%
09:00 +7°C° 0 mm 3 m/s 746 mmHg 82%
10:00 +7°C° 0 mm 3 m/s 746 mmHg 78%
11:00 +7°C° 0 mm 3 m/s 745 mmHg 75%
12:00 +8°C° 0.1 mm 3 m/s 745 mmHg 71%
13:00 +9°C° 0.1 mm 3 m/s 744 mmHg 67%
14:00 +8°C° 0.1 mm 4 m/s 744 mmHg 64%
15:00 +8°C° 0.1 mm 4 m/s 743 mmHg 66%
16:00 +8°C° 0.1 mm 4 m/s 743 mmHg 67%
17:00 +8°C° 0.1 mm 4 m/s 743 mmHg 69%
18:00 +8°C° 0.1 mm 3 m/s 742 mmHg 76%
19:00 +5°C° 0.1 mm 3 m/s 742 mmHg 82%
20:00 +5°C° 0.1 mm 2 m/s 742 mmHg 89%
21:00 +5°C° 0 mm 2 m/s 741 mmHg 90%
22:00 +5°C° 0 mm 2 m/s 741 mmHg 90%
23:00 +5°C° 0 mm 2 m/s 740 mmHg 91%

21 Aprilie, Miercuri

Timp Temperatura Precipitaţii Vânt Presiune Umiditate
00:00 +4°C° 0 mm 3 m/s 740 mmHg 90%
01:00 +4°C° 0 mm 3 m/s 740 mmHg 90%
02:00 +4°C° 0 mm 3 m/s 739 mmHg 89%
03:00 +4°C° 0.3 mm 4 m/s 739 mmHg 91%
04:00 +3°C° 0.3 mm 4 m/s 738 mmHg 93%
05:00 +2°C° 0.3 mm 5 m/s 738 mmHg 94%
06:00 +2°C° 0.7 mm 5 m/s 738 mmHg 95%
07:00 +2°C° 0.7 mm 5 m/s 738 mmHg 95%
08:00 +2°C° 0.7 mm 5 m/s 738 mmHg 96%
09:00 +3°C° 0.4 mm 5 m/s 738 mmHg 95%
10:00 +3°C° 0.4 mm 6 m/s 738 mmHg 93%
11:00 +3°C° 0.4 mm 6 m/s 738 mmHg 92%
12:00 +4°C° 0.3 mm 6 m/s 739 mmHg 87%
13:00 +5°C° 0.3 mm 6 m/s 739 mmHg 81%
14:00 +7°C° 0.3 mm 6 m/s 739 mmHg 76%
15:00 +7°C° 0.1 mm 6 m/s 740 mmHg 74%
16:00 +7°C° 0.1 mm 6 m/s 740 mmHg 72%
17:00 +8°C° 0.1 mm 6 m/s 741 mmHg 70%
18:00 +7°C° 0 mm 5 m/s 741 mmHg 74%
19:00 +5°C° 0 mm 4 m/s 742 mmHg 77%
20:00 +4°C° 0 mm 3 m/s 742 mmHg 81%
21:00 +4°C° 0 mm 3 m/s 742 mmHg 83%
22:00 +4°C° 0 mm 2 m/s 743 mmHg 86%
23:00 +3°C° 0 mm 2 m/s 743 mmHg 88%

22 Aprilie, Joi

Timp Temperatura Precipitaţii Vânt Presiune Umiditate
00:00 +3°C° 0 mm 2 m/s 744 mmHg 89%
01:00 +2°C° 0 mm 2 m/s 744 mmHg 89%
02:00 +2°C° 0 mm 2 m/s 744 mmHg 90%
03:00 +2°C° 0 mm 2 m/s 745 mmHg 90%
04:00 +2°C° 0 mm 2 m/s 745 mmHg 89%
05:00 +2°C° 0 mm 2 m/s 745 mmHg 89%
06:00 +3°C° 0 mm 2 m/s 745 mmHg 84%
07:00 +5°C° 0 mm 2 m/s 746 mmHg 78%
08:00 +7°C° 0 mm 2 m/s 746 mmHg 73%
09:00 +9°C° 0 mm 2 m/s 746 mmHg 66%
10:00 +11°C° 0 mm 3 m/s 747 mmHg 59%
11:00 +13°C° 0 mm 3 m/s 747 mmHg 53%
12:00 +13°C° 0 mm 3 m/s 747 mmHg 50%
13:00 +14°C° 0 mm 3 m/s 747 mmHg 48%
14:00 +14°C° 0 mm 3 m/s 747 mmHg 45%
15:00 +14°C° 0 mm 3 m/s 747 mmHg 48%
16:00 +14°C° 0 mm 3 m/s 747 mmHg 51%
17:00 +14°C° 0 mm 3 m/s 748 mmHg 54%
18:00 +13°C° 0 mm 3 m/s 748 mmHg 59%
19:00 +12°C° 0 mm 3 m/s 748 mmHg 63%
20:00 +11°C° 0 mm 3 m/s 748 mmHg 68%
21:00 +11°C° 0 mm 4 m/s 748 mmHg 70%
22:00 +10°C° 0 mm 4 m/s 748 mmHg 72%
23:00 +10°C° 0 mm 4 m/s 748 mmHg 74%
Arată mai mult

Formular de consimțământ

Meteoprog și furnizorii noștri de servicii pot stoca și accesa date personale, precum cookies, identificatori de dispozitiv sau alte tehnologii similare pe dispozitivul dumneavoastră și procesa astfel de date pentru a personaliza conținutul și reclamele, dar și pentru a oferi caracteristici de social media și pentru a analiza traficul.

  • Stocarea și/sau accesarea informațiilor pe dispozitivul dumneavoastră

    Cookies, identificatori de dispozitiv sau alte informații pot fi stocate sau accesate pe dispozitiv în scopurile indicate mai sus.

  • Reclame și conținut personalizat, evaluarea reclamelor și a conținutului, informații despre audiențe și dezvoltarea produselor

    Reclamele și conținutul pot fi personalizate pe baza unui profil. Pot fi adăugate date suplimentare pentru a personaliza mai bine reclamele și conținutul. Performanța reclamelor și conținutului poate fi măsurată. Pot fi obținute informații despre utilizatorii care au văzut reclamele și conținutul. Aceste date pot fi utilizate pentru a dezvolta sau îmbunătăți experiența utilizatorilor, sistemele și software-ul.

Dând clic pe ‘Sunt de acord’, permiteți utilizarea cookie-urilor menționate, a identificatorilor de dispozitiv, balizelor web sau altor tehnologii similare. Setările pot fi modificate din browser-ul dispozitivului dumneavoastră.

În anumite scopuri, interesele legitime pot prima asupra consimțământului. Puteți citi mai multe informații în acest sens în Politica privind Confidențialitatea Datelor și Cookie.